sat.trackr.live / text

‹ back to catalog

KUIPER-00502

NORAD 68883 · 2026-095V

PAYLOAD ACTIVE UNKNOWN

§ Identity

Operator
Country
US
Launch date
2026-04-28
Launch site
AFETR
Launch vehicle
Mass (kg)
RCS (m²)

External: N2YO · Heavens-Above · Gunter

§ Orbital elements

Epoch: 2026-05-24T22:41:41.409024Z

Period
93.65 min
Inclination
51.8806°
Eccentricity
0.0005821
Mean motion
15.37691421 rev/d
Perigee alt
449.0 km
Apogee alt
456.9 km
Semi-major
6,831.1 km
B*
5.8574e-4
RAAN
354.7677°
Arg perigee
202.0241°
Mean anomaly
158.0497°
Rev number
415

§ Raw data

KUIPER-005021 68883U 26095V   26144.94561816  .00021698  00000+0  58574-3 0  99992 68883  51.8806 354.7677 0005821 202.0241 158.0497 15.37691421  4152

JSON: /api/v1/satellites/68883 · /tle

For live sub-satellite position, see the globe view (requires WebGL).

§ Visibility from observer

Set your observer location to see the next 7 days of passes ≥ 10°. The values pass through the URL so the page stays shareable.

No JS? Fill the form by hand. The geolocation button needs JavaScript.